Weather History for Fort Smith, AR

Change the Weather History Date:

Tuesday, January 24, 2012

  Actual Average Record
Temperature  
Mean Temperature 47 °F 40 °F  
Max Temperature 63 °F 51 °F 80 °F (1950)
Min Temperature 31 °F 29 °F -7 °F (1894)
Degree Days  
Heating Degree Days 18 25  
Month to date heating degree days 469 620  
Since 1 July heating degree days 1524 1919  
Moisture  
Dew Point 30 °F    
Average Humidity 57    
Maximum Humidity 85    
Minimum Humidity 29    
Precipitation  
Precipitation 0.32 in 0.10 in 4.83 in (1949)
Month to date precipitation 1.39 2.15  
Year to date precipitation 1.39 2.15  
Sea Level Pressure  
Sea Level Pressure 30.14 in    
Wind  
Wind Speed 10 mph (ENE)    
Max Wind Speed 23 mph    
Max Gust Speed 32 mph    
Visibility 10 miles    
Events Rain    
T = Trace of Precipitation, MM = Missing Value Source: NWS Daily Summary

Daily Weather History Graph

Daily Weather History Graph

Search for Another Location

Airport:

Trip Planner

Search our weather history database for the weather conditions in past years. The results will help you decide how hot, cold, wet, or windy it might be!

Date:

Astronomy

Jan. 24, 2012 Rise Set
Actual Time 7:22 AM CST 5:36 PM CST
Civil Twilight 6:55 AM CST 6:04 PM CST
Nautical Twilight 6:24 AM CST 6:34 PM CST
Astronomical Twilight 5:54 AM CST 7:05 PM CST
Moon 7:56 AM CST (1/24) 7:23 PM CST (1/24)
Length of Visible Light 11h 08m
Length of Day
10h 14m
New Moon, 2% of the Moon is Illuminated
Jan 24
New Moon
Jan 30
First Quarter
Feb 7
Full
Feb 14
Last Quarter
Feb 21
New

Hourly Weather History & Observations

Time (CST) Temp. Windchill Dew Point Humidity Pressure Visibility Wind Dir Wind Speed Gust Speed Precip Events Conditions
12:53 AM 37.0 °F - 28.9 °F 73% 30.11 in 10.0 mi Calm Calm - N/A   Clear
1:53 AM 33.1 °F - 27.0 °F 78% 30.13 in 10.0 mi Calm Calm - N/A   Clear
2:53 AM 32.0 °F 28.7 °F 26.1 °F 79% 30.13 in 10.0 mi ENE 3.5 mph - N/A   Clear
3:53 AM 34.0 °F 29.8 °F 27.0 °F 75% 30.13 in 10.0 mi ENE 4.6 mph - N/A   Clear
4:53 AM 33.8 °F 30.8 °F 26.6 °F 75% 30.14 in 10.0 mi ENE 3.5 mph - N/A   Clear
5:53 AM 32.0 °F 26.4 °F 26.6 °F 80% 30.15 in 10.0 mi NE 5.8 mph - N/A   Clear
6:53 AM 30.9 °F 25.2 °F 27.0 °F 85% 30.17 in 10.0 mi NE 5.8 mph - N/A   Clear
7:53 AM 33.8 °F 29.6 °F 28.4 °F 81% 30.17 in 10.0 mi ENE 4.6 mph - N/A   Clear
8:53 AM 39.0 °F 34.0 °F 30.9 °F 73% 30.21 in 10.0 mi East 6.9 mph - N/A   Clear
9:53 AM 46.0 °F 41.9 °F 32.0 °F 58% 30.22 in 10.0 mi ENE 8.1 mph - N/A   Clear
10:53 AM 52.0 °F - 33.1 °F 49% 30.22 in 10.0 mi ENE 11.5 mph - N/A   Clear
11:53 AM 57.0 °F - 28.0 °F 33% 30.17 in 10.0 mi East 13.8 mph - N/A   Clear
12:53 PM 60.1 °F - 28.9 °F 31% 30.14 in 10.0 mi East 13.8 mph - N/A   Clear
1:53 PM 62.1 °F - 30.9 °F 31% 30.12 in 10.0 mi NE 15.0 mph - N/A   Clear
2:53 PM 62.6 °F - 30.2 °F 30% 30.09 in 10.0 mi ENE 15.0 mph - N/A   Scattered Clouds
3:53 PM 61.0 °F - 30.0 °F 31% 30.09 in 10.0 mi ENE 17.3 mph - N/A   Partly Cloudy
4:53 PM 57.9 °F - 30.9 °F 36% 30.09 in 10.0 mi ENE 16.1 mph - N/A   Partly Cloudy
5:53 PM 55.9 °F - 28.9 °F 36% 30.10 in 10.0 mi East 13.8 mph - N/A   Mostly Cloudy
6:53 PM 55.0 °F - 28.9 °F 37% 30.10 in 10.0 mi East 13.8 mph - N/A   Scattered Clouds
7:53 PM 55.9 °F - 28.0 °F 34% 30.11 in 10.0 mi East 10.4 mph - N/A   Clear
8:53 PM 55.9 °F - 28.0 °F 34% 30.14 in 10.0 mi East 11.5 mph - N/A   Overcast
9:53 PM 52.0 °F - 34.0 °F 50% 30.16 in 10.0 mi East 11.5 mph 21.9 mph 0.00 in Rain Light Rain
10:53 PM 46.9 °F - 41.0 °F 80% 30.14 in 5.0 mi ENE 5.8 mph - 0.14 in Rain Rain
11:53 PM 45.0 °F 37.9 °F 42.1 °F 90% 30.14 in 5.0 mi East 16.1 mph - 0.17 in Rain Rain